Regional Weather Roundup
Issued by NWS Sterling, VA

Home | Current Version | Previous Version | Graphics & Text | Print | Product List | Glossary On
Versions: 1 2 3 4 5 6 7 8 9 10 11 12 13 14 15 16 17 18 19 20 21 22 23 24 25 26 27 28 29 30 31 32 33 34 35 36 37 38 39 40 41 42 43 44 45 46 47 48 49 50
000
ASUS41 KLWX 031310
RWRLWX

REGIONAL WEATHER ROUNDUP
NATIONAL WEATHER SERVICE BALTIMORE MD/WASHINGTON DC
900 AM EDT FRI JUL 03 2015

Note: "FAIR" indicates few or no clouds below 12,000 feet
with no significant weather and/or obstructions to visibility.
 TC=TEMPERATURE CELSIUS

 * =Non NWS site. Station does not report precipitation (e.g. rain,
    snow, etc.), thunder, or fog.

DCZ001-MDZ009-015-VAZ040>042-051-053>054-031400-
WASHINGTON METRO

CITY           SKY/WX    TMP DP  RH WIND       PRES   REMARKS
WASHINGTON NAT CLOUDY    71  67  87 CALM      29.98R FOG
DULLES         CLOUDY    70  65  84 CALM      29.98S
ANDREWS AFB    CLOUDY    69  69  99 NE2       29.98R
FT BELVOIR     CLOUDY    68  66  94 CALM      29.98R
QUANTICO       CLOUDY    69  65  86 NW5       29.99R
COLLEGE PARK*  CLOUDY    70  68  94 CALM      29.98R
LEESBURG*      PTSUNNY   70  68  94 NW3       30.00R
MANASSAS*      FOG       64  64 100 CALM      29.99R VSB 1
GAITHERSBURG*  MOSUNNY   66  64  94 CALM      30.02S

$$

MDZ006>007-011-014-031400-
BALTIMORE METRO

CITY           SKY/WX    TMP DP  RH WIND       PRES   REMARKS
BWI AIRPORT    CLOUDY    70  64  81 NE6       29.97R
MD SCIENCE CTR   N/A     72  62  71 MISG      29.99R
MARTIN STATE   MOSUNNY   70  66  88 CALM      29.99R FOG
ANNAPOLIS      CLOUDY    72  65  78 CALM      29.97R HAZE
FORT MEADE*    CLOUDY    66  64  94 CALM      30.00S

$$

MDZ012-015-019>023-031400-
MARYLAND EASTERN SHORE

CITY           SKY/WX    TMP DP  RH WIND       PRES   REMARKS
OCEAN CITY     PTSUNNY   73  65  75 E6        29.98R HAZE
SALISBURY      MOSUNNY   72  67  84 E5        29.97S HAZE
BAY BRIDGE AP*   N/A     72  68  88 CALM      29.98R FOG
CAMBRIDGE*     CLOUDY    72  68  88 CALM      29.98R
EASTON*        SUNNY     72  72 100 CALM      30.01R FOG

$$

MDZ017>025-031400-
SOUTHERN MARYLAND

CITY           SKY/WX    TMP DP  RH WIND       PRES   REMARKS
PATUXENT RIVER PTSUNNY   73  67  81 CALM      29.97R
ST INIGOES     PTSUNNY   74  67  78 CALM      29.97R
LEONARDTOWN*   PTSUNNY   70  64  83 CALM      30.00R

$$

MDZ003>005-031400-
NORTH CENTRAL MARYLAND

CITY           SKY/WX    TMP DP  RH WIND       PRES   REMARKS
FREDERICK*     FOG       64  64 100 CALM      30.02R VSB 1/2
HAGERSTOWN APT PTSUNNY   67  64  90 CALM      30.00R FOG
WESTMINSTER*   MOSUNNY   70  64  83 E3        30.00R

$$

MDZ501>502-031400-
WESTERN MARYLAND

CITY           SKY/WX    TMP DP  RH WIND       PRES   REMARKS
OAKLAND*       SUNNY     63 N/A N/A SE8       30.04S
CUMBERLAND*    MOSUNNY   63  61  94 CALM      30.05R

$$

VAZ025>031-031400-
SHENANDOAH VALLEY

CITY           SKY/WX    TMP DP  RH WIND       PRES   REMARKS
WINCHESTER*    PTSUNNY   68  64  88 NE3       30.00R
FRONT ROYAL*   CLOUDY    63  63 100 CALM      29.99R
LURAY*         CLOUDY    64  64 100 CALM      30.01R FOG
NEW MARKET*    CLOUDY    63  63  99 CALM      29.99S
STAUNTON*      CLOUDY    67  64  93 CALM      30.03S FOG
WAYNESBORO*    CLOUDY    62  62 100 CALM      30.02R

$$

WVZ021-048>050-054>055-031400-
EASTERN WEST VIRGINIA PANHANDLE

CITY           SKY/WX    TMP DP  RH WIND       PRES   REMARKS
MARTINSBURG    CLOUDY    67  62  84 N5        30.00S HAZE
PETERSBURG*    PTSUNNY   65  60  83 CALM      30.01S

$$

VAZ036>039-050-031400-
CENTRAL FOOTHILLS

CITY           SKY/WX    TMP DP  RH WIND       PRES   REMARKS
CHARLOTTESVILL CLOUDY    67  64  90 CALM      29.99R FOG
CULPEPER*      CLOUDY    64  63  98 CALM      30.00R
ORANGE*        CLOUDY    68  64  88 CALM      30.01R FOG
GORDONSVILLE*  FAIR      66  64  94 CALM      29.99R FOG
WARRENTON*     FOG       65  65 100 CALM      29.98S VSB 1/4

$$

VAZ055>057-031400-
NORTH AND CENTRAL PIEDMONT

CITY           SKY/WX    TMP DP  RH WIND       PRES   REMARKS
FREDERICKSBRG* CLOUDY    69  69 100 CALM      29.99R
STAFFORD*      CLOUDY    65  64  94 CALM      30.03R FOG

$$

NCZ024-NYZ072-PAZ021-071-VAZ022-071-031400-
OTHER REGIONAL OBSERVATIONS

CITY           SKY/WX    TMP DP  RH WIND       PRES   REMARKS
NEW YORK CITY  SUNNY     69  53  56 VRB6      30.01R
PHILADELPHIA   PTSUNNY   73  58  59 NE10      29.99R
PITTSBURGH     PTSUNNY   64  57  78 E3        29.98R
ROANOKE        CLOUDY    68  65  90 E6        30.01R
RICHMOND       MOSUNNY   75  66  73 CALM      29.99R
RALEIGH        CLOUDY    74  70  87 S6        29.98S FOG

$$

ANZ530>537-031400-
MARINE OBSERVATIONS

STATION/POSITION TIME  TEMP    WIND        PRES
                       AIR SEA DIR/SP/G
                 (UTC) (F)     (DEG/KT/KT) (MB)
THOMAS PT LIGHT  NOT AVBL
BALT KEY BRIDGE  1200   69     340/  4/  4 1014.6R
COVE POINT       1200   71     300/  1/  3 1015.4R
LEWISETTA        1200   72 79   CALM  /  2 1014.4R
SOLOMONS ISLAND  1200      79                N/A
PINEY POINT      1200           50/  4/  5   N/A

$$




USA.gov is the U.S. government's official web portal to all federal, state and local government web resources and services.